Regional Weather Roundup
Issued by NWS

Home | Current Version | Previous Version | Text Only | Print | Product List | Glossary On
Versions: 1 2 3 4 5 6 7 8 9 10 11 12 13 14 15 16 17 18 19 20 21 22 23 24 25 26 27 28 29 30 31 32 33 34 35 36 37 38 39 40 41 42 43 44 45 46 47 48 49 50
598
ASUS43 KDTX 172110
RWRMI
MICHIGAN HOURLY REGIONAL WEATHER ROUNDUP
NATIONAL WEATHER SERVICE DETROIT/PONTIAC MI
400 PM EST SAT FEB 17 2018

NOTE: "FAIR" INDICATES FEW OR NO CLOUDS BELOW 12,000 FEET WITH NO
SIGNIFICANT WEATHER AND/OR OBSTRUCTION TO VISIBILITY.

MIZ047>049-052>055-059>063-066>070-074>076-081>083-172200-
SOUTHEAST LOWER MICHIGAN

CITY           SKY/WX    TMP DP  RH WIND       PRES   REMARKS
ADRIAN         PTSUNNY   32  24  72 SW10      29.99S WCI  24
ALMA           CLOUDY    32  12  43 SW8       29.95R WCI  25
ANN ARBOR      FAIR      32  24  72 SE8       29.97F WCI  25
BAD AXE        FAIR      32  15  49 SW8       29.95S WCI  25
CARO           PTSUNNY   33  17  52 SW9       29.94F WCI  25
DETROIT CITY   FAIR      33  23  66 SW7       30.00R WCI  27
DETROIT        CLOUDY    34  24  67 SW9       30.00R WCI  27
FLINT          FAIR      32  21  64 SW12      29.96F WCI  23
GROSSE ILE     PTSUNNY   32  27  81 S10       30.00R WCI  24
HILLSDALE      CLOUDY    32  25  74 SW9       29.94S WCI  24
HOWELL         PTSUNNY   33  23  67 SW6       29.95F WCI  27

CITY           SKY/WX    TMP DP  RH WIND       PRES   REMARKS
JACKSON        PTSUNNY   34  22  61 S9        29.96R WCI  27
LAMBERTVILLE   CLOUDY    33  24  71 SW6       30.00R WCI  27
LANSING        CLOUDY    34  22  61 SW12      29.96S WCI  25
LAPEER         FAIR      32  21  63 SW10      29.96S WCI  24
MASON          CLOUDY    34  20  55 SW7       29.96R WCI  28
MONROE         CLOUDY    34  24  66 SW5       30.00R WCI  29
MT. CLEMENS    PTSUNNY   34  24  66 SW8       29.97S WCI  27
PONTIAC        CLOUDY    32  21  64 SW9       29.95S WCI  24
PORT HOPE        N/A     32  13  45 SW7       29.93F WCI  26
PORT HURON     CLOUDY    32  21  64 SW8       29.99R WCI  25
TRI CITIES     CLOUDY    31  12  45 SW12      29.94F WCI  22
MIDLAND        CLOUDY    32  11  42 S8        29.93S WCI  25
TROY           FAIR      34  22  61 SW9       30.00S WCI  26
SAGINAW HB     CLOUDY    32  21  64 SW14      29.94F WCI  22
$$
MIZ043>046-050>051-056>058-064>065-071>073-077>080-172200-
SOUTHWEST LOWER MICHIGAN

CITY           SKY/WX    TMP DP  RH WIND       PRES   REMARKS
BATTLE CREEK   CLOUDY    33  23  66 SW6       29.96S WCI  28
BENTON HARBOR  CLOUDY    35  24  64 S7        29.96F WCI  29
BIG RAPIDS     CLOUDY    30  15  53 SW9       29.91R WCI  22
COLDWATER      CLOUDY    34  25  69 SW6       29.96S WCI  29
FREMONT        CLOUDY    31  18  58 SW8       29.93R WCI  24
HOLLAND        CLOUDY    32  25  75 W9        29.96F WCI  24
GRAND RAPIDS   CLOUDY    34  23  64 W14       29.95S WCI  25
IONIA          PTSUNNY   33  22  63 SW12      29.95R WCI  24
KALAMAZOO      CLOUDY    34  20  56 W6        29.97S WCI  29
LUDINGTON      CLOUDY    31  20  64 SW13      29.91S WCI  21
MARSHALL       CLOUDY    33  20  59 SW8       29.95F WCI  26
MOUNT PLEASANT PTSUNNY   32   6  32 SW8       29.92S WCI  25
MUSKEGON       CLOUDY    32  24  72 SW15G23   29.95F WCI  22
SOUTH HAVEN    CLOUDY    35  23  62 SW8       29.96S WCI  28
$$
MIZ016>042-172200-
NORTHERN LOWER MICHIGAN

CITY           SKY/WX    TMP DP  RH WIND       PRES   REMARKS
ALPENA         CLOUDY    34  11  38 SW14G21   29.86S WCI  25
BEAVER ISLAND  LGT SNOW  28  24  86 SW16G22   29.82S WCI  16
BELLAIRE       CLOUDY    32  17  53 SW13G18   29.86S WCI  22
CADILLAC       CLOUDY    30  12  46 SW14      29.85S WCI  19
CHARLEVOIX     LGT SNOW  30  24  77 SW13G25   29.87S WCI  20
FRANKFORT      CLOUDY    32  20  62 SW15G23   29.88S WCI  22
GAYLORD        CLOUDY    29  13  51 SW21G29   29.81S WCI  16
GRAYLING       FAIR      30  12  47 SW10      29.84S WCI  21
HARBOR SPRINGS CLOUDY    30  23  75 W12G17    29.83R WCI  20
HOUGHTON LAKE  CLOUDY    28  19  69 SW14      29.88S WCI  17
MANISTEE       FAIR      31  17  56 SW14G20   29.90R WCI  21
OSCODA         CLOUDY    30  16  56 SW9       29.90S WCI  22
PELLSTON       LGT SNOW  29  23  78 W15G31    29.83R WCI  18
ROGERS CITY    CLOUDY    34   9  35 SW12G18   29.84S WCI  25
TRAVERSE CITY  CLOUDY    34  14  43 SW14G20   29.85F WCI  25
$$
MIZ007>008-015-172200-
EASTERN UPPER MICHIGAN

CITY           SKY/WX    TMP DP  RH WIND       PRES   REMARKS
KINROSS        MIX PCPN  29  21  72 SW13G21   29.78F WCI  19
MACKINAC ISLAN LGT SNOW  27  24  88 SW17G28   29.81R VSB 1   WCI  15
NEWBERRY       PTSUNNY   25  18  74 SW17      29.77R WCI  12
S. S. MARIE    PTSUNNY   32  19  58 SW13      29.77S WCI  22
MUNISING         N/A     29  13  51 S8        29.75S WCI  21
$$
MIZ004>006-011>014-085-172200-
CENTRAL UPPER MICHIGAN

CITY           SKY/WX    TMP DP  RH WIND       PRES   REMARKS
MANISTIQUE     CLOUDY    24  19  81 SW12G21   29.79S WCI  13
ESCANABA       CLOUDY    27  18  69 SW10      29.80S WCI  17
MENOMINEE      LGT SNOW  25  21  86 SW9       29.85R FOG     WCI  15
SAWYER-GWINN   SUNNY     28  14  54 SW16      29.72S WCI  17
$$
MIZ001>003-009>011-084-172200-
WESTERN UPPER MICHIGAN

CITY           SKY/WX    TMP DP  RH WIND       PRES   REMARKS
IRON MOUNTAIN  FAIR      28  18  66 VRB7      29.74F WCI  21
HOUGHTON       PTSUNNY   26  16  65 W25G32    29.70S WCI  11
COPPER HARBOR    N/A     28  16  60 NW12G23   29.71S WCI  18
IRONWOOD       PTSUNNY   31  15  52 W17G24    29.74R WCI  19
$$

ABBREVIATIONS USED IN REMARKS
   TC - TEMPERATURE IN CELSIUS
  WCI - WIND CHILL INDEX
   HX - HEAT INDEX
  VSB - VISIBILITY





USA.gov is the U.S. government's official web portal to all federal, state and local government web resources and services.